Starlink 5635

operational
NORAD ID: 55367 Int'l Des: 2023-013 Owner: SPXS Country: US Constellation: starlink
LEOCIRCULAR

关于 Starlink 5635

正在加载描述...

实时位置

正在加载3D地球...

即将过境

高度历史

Altitude vs Time

uPlot chart will show altitude changes over time

两行轨道根数

1 55367U 23013AN 25354.29288877 .00001184 00000-0 10268-3 0 9999
2 55367 43.0040 358.9436 0001164 271.3259 88.7450 15.02535566159913
Epoch: Dec 20, 2025 • Age: 21 hours

当前状态

高度 558.4 km
速度 7.58 km/s
星下点 8.64°N, 7.08°E
发射日期 Jan 26, 2023
运行时间 2.8 years
类型 internet

技术详情

分类 Payload
质量 305.00 kg
干质量 290.00 kg
总质量 305.00 kg
长度 0.20 m
直径 2.80 m
跨度 9.00 m
形状 Box + pan
制造商 SPXS
平台类型 Starlink
阶段状态 In Orbit
所有者/国家 SPXS/US

大型星座

Loading constellations...